Probability
0 0 0 0 0 0 0 0 0 0 0 0 0 0 0 0 0 0 0 0 0 0 0 0 0 0 0 0 0 0 0 0 0 0 0 0 0 0 0 0 0 0 0
0 0 0 0 0 0 0 0 0 0 0 0 0 0 0 0 0 0 0 0 0 0 0 0 0 0 0 0 0 0 0 0 0 0 0 0 0 0 0 0 0 0 0
0 0 0 0 0 0 0 0 0 0 0 0 0 0 0 0 0 0 0 0 0 0 0 0 0 0 0 0 0 0 0 0 0 0 0 0 0 0 0 0 0 0 0
0 0 0 0 0 0 0 0 0 0 0 0 0 0 0 0 0 0 0 0 0 0 0 0 0 0 0 0 0 0 0 0 0 0 0 0 0 0 0 0 0 0 0
0 0 0 0 0 0 0 0 0 0 0 0 0 0 0 0 0 0 0 0 0 0 0 0 0 0 0 0 0 0 0 0 0 0 0 0 0 0 0 0 0 0 0
0 0 0 0 0 0 0 0 0 0 0 0 0 0 0 0 0 0 0 0 0 0 0 0 0 0 0 0 0 0 0 0 0 0 0 0 0 0 0 0 0 0 0
0 0 0 0 0 0 0 0 0 0 0 0 0 0 0 0 0 0 0 0 0 0 0 0 0 0 0 0 0 0 0 0 0 0 0 0 0 0 0 0 1 2 2
0 0 0 0 0 0 0 0 0 0 0 0 0 0 0 0 0 0 0 0 0 0 0 0 0 0 0 0 0 0 0 0 0 0 0 0 0 0 0 0 1 2 3
0 0 0 0 0 0 0 0 0 0 0 0 0 0 0 0 0 0 0 0 0 0 0 0 0 0 0 0 0 0 0 0 0 0 0 0 0 0 0 0 0 1 2
0 0 0 0 0 0 0 0 0 0 0 0 0 0 0 0 0 0 0 0 0 0 0 0 0 0 0 0 0 0 0 0 0 0 0 0 0 0 0 0 0 0 1
0 0 0 0 0 0 0 0 0 0 0 0 0 0 0 0 0 0 0 0 0 0 0 0 0 0 0 0 0 0 0 0 0 0 0 0 0 0 0 0 0 0 0
0 0 0 0 0 0 0 0 0 0 0 0 0 0 0 0 0 0 0 0 0 0 0 0 0 0 0 0 0 0 0 0 0 0 0 0 0 0 0 0 0 0 0
0 0 0 0 0 0 0 0 0 0 0 0 0 0 0 0 0 0 0 0 0 0 0 0 0 0 0 0 0 0 0 0 0 0 0 0 0 0 0 0 0 0 0
0 0 0 0 0 0 0 0 0 0 0 0 0 0 0 0 0 0 0 0 0 0 0 0 0 0 0 0 0 0 0 0 0 0 0 0 0 0 0 0 0 0 0
0 0 0 0 0 0 0 0 0 0 0 0 0 0 0 0 0 0 0 0 0 0 0 0 0 0 0 0 0 0 0 0 0 0 0 0 0 0 0 0 0 0 0
0 0 0 0 0 0 0 0 0 0 0 0 0 0 0 0 0 0 0 0 0 0 0 0 0 0 0 0 0 0 0 0 0 0 0 0 0 0 0 0 0 0 0
0 0 0 0 0 0 0 0 0 0 0 0 0 0 0 0 0 0 0 0 0 0 0 0 0 0 0 0 0 0 0 0 0 0 0 0 0 0 0 0 0 0 0
0 0 0 0 0 0 0 0 0 0 0 0 0 0 0 0 0 0 0 0 0 0 0 0 0 0 0 0 0 0 0 0 0 0 0 0 0 0 0 0 0 0 0
0 0 0 0 0 0 0 0 0 0 0 0 0 0 0 0 0 0 0 0 0 0 0 0 0 0 0 0 0 0 0 0 0 0 0 0 0 0 0 0 0 0 0
0 0 0 0 0 0 0 0 0 0 0 0 0 0 0 0 0 0 0 0 0 0 0 0 0 0 0 0 0 0 0 0 0 0 0 0 0 0 0 0 0 0 0
0 0 0 0 0 0 0 0 0 0 0 0 0 0 0 0 0 0 0 0 0 0 0 0 0 0 0 0 0 0 0 0 0 0 0 0 0 0 0 0 0 0 0
0 0 0 0 0 0 0 0 0 0 0 0 0 0 0 0 0 0 0 0 0 0 0 0 0 0 0 0 0 0 0 0 0 0 0 0 0 0 0 0 0 0 0
0 0 0 0 0 0 0 0 0 0 0 0 0 0 0 0 0 0 0 0 0 0 0 0 0 0 0 0 0 0 0 0 0 0 0 0 0 0 0 0 0 0 0
0 0 0 0 0 0 0 0 0 0 0 0 0 0 0 0 0 0 0 0 0 0 0 0 0 0 0 0 0 0 0 0 0 0 0 0 0 0 0 0 0 0 0
0 0 0 0 0 0 0 0 0 0 0 0 0 0 0 0 0 0 0 0 0 0 0 0 0 0 0 0 0 0 0 0 0 0 0 0 0 0 0 0 0 0 0
0 0 0 0 0 0 0 0 0 0 0 0 0 0 0 0 0 0 0 0 0 0 0 0 0 0 0 0 0 0 0 0 0 0 0 0 0 0 0 0 0 0 0
Wind_Speed
2 2 2 2 2 2 2 3 3 3 3 3 3 2 1 1 1 1 2 3 5 5 6 7 7 7 7 7 7 7 8 7 7 6 7 7 8 8 9 9 9 9 10
2 2 2 2 3 2 2 2 3 3 3 3 3 3 2 2 1 2 2 3 4 5 6 6 7 8 8 8 8 8 9 8 7 7 7 8 9 9 9 10 11 11 10
2 2 2 2 3 2 2 2 3 3 3 3 3 3 2 2 2 2 2 2 3 4 5 7 8 8 9 9 9 10 10 9 9 8 8 9 9 10 10 11 11 12 11
3 2 2 2 3 2 2 2 2 3 3 3 3 3 2 2 2 2 2 2 3 3 4 7 7 8 9 10 10 10 10 10 10 9 10 10 10 10 11 11 12 12 13
3 2 2 2 2 2 2 2 3 2 3 4 3 2 2 2 2 2 3 3 3 4 4 6 7 8 9 10 10 10 10 11 11 10 10 11 11 11 12 12 13 13 14
4 3 2 3 3 2 2 3 3 3 2 3 3 3 2 2 1 2 3 3 4 4 5 5 4 6 9 10 11 12 12 12 12 12 12 12 12 12 13 13 14 14 15
4 3 3 3 3 3 3 2 2 3 3 3 2 3 3 2 2 2 2 3 4 4 4 4 4 3 4 10 11 12 13 13 13 13 13 14 14 14 15 15 15 16 16
3 3 3 3 3 2 3 3 3 2 3 4 2 2 2 3 2 3 2 3 3 3 4 4 4 4 4 3 8 13 13 14 14 15 15 15 15 16 16 16 17 17 17
3 3 3 3 3 3 2 3 2 1 1 2 3 1 1 2 4 2 2 2 3 3 3 3 4 5 5 4 5 9 14 14 14 15 16 16 16 16 17 17 17 18 18
3 3 3 2 3 2 3 3 2 1 1 1 2 2 1 1 2 4 3 2 3 3 3 3 4 4 4 4 6 10 13 14 14 15 15 16 17 17 17 18 17 18 18
3 3 3 3 3 2 2 3 2 2 1 0 1 1 2 2 2 3 5 4 4 3 3 3 3 3 4 4 5 9 14 14 15 15 15 16 17 17 18 19 18 18 18
2 3 3 3 3 2 2 2 2 2 2 1 1 1 1 1 2 3 4 5 5 4 4 3 3 3 3 4 6 12 14 15 15 16 16 15 16 17 18 18 18 19 19
2 3 3 3 3 3 3 2 2 2 2 2 2 2 2 2 3 3 4 5 6 5 3 2 2 3 4 4 5 12 12 15 16 16 16 17 17 17 17 18 18 18 19
2 3 3 3 3 3 3 3 2 2 2 2 3 2 2 2 2 3 3 4 6 5 4 4 2 2 4 5 7 12 8 14 15 17 17 18 18 17 17 18 19 19 19
2 3 3 3 3 3 3 3 2 3 3 3 3 3 3 2 2 3 3 3 4 6 7 4 3 3 4 4 8 6 7 13 16 17 17 18 18 18 17 17 19 19 19
2 3 3 3 4 4 4 3 3 3 3 3 3 3 3 3 3 3 3 3 4 5 7 5 5 5 6 6 10 7 8 15 15 16 17 17 18 18 17 18 18 19 19
2 2 3 3 3 4 4 3 3 3 3 3 4 4 5 4 3 3 3 3 4 4 7 8 6 5 6 7 8 7 7 7 8 14 16 17 18 18 18 17 17 18 19
2 2 2 3 3 4 4 3 3 4 3 4 4 4 5 5 5 4 4 5 5 5 6 10 8 6 7 7 8 8 8 7 7 13 16 17 18 18 17 17 17 17 17
2 2 2 2 3 3 3 3 3 3 3 4 4 4 5 6 6 5 5 5 5 5 5 7 9 7 6 6 8 8 8 7 8 10 13 15 16 17 16 16 16 17 17
2 2 2 3 3 3 3 3 3 3 3 4 4 5 5 5 6 6 5 6 6 6 6 6 7 7 6 7 6 7 8 7 7 7 10 12 14 15 16 17 17 17 17
2 2 2 3 3 3 2 3 4 3 3 4 4 4 5 6 7 7 6 6 6 5 5 6 7 7 7 7 7 7 8 8 7 5 7 7 8 7 9 13 14 15 17
2 2 2 2 3 3 5 6 5 4 4 4 5 5 5 5 7 9 10 9 8 7 7 6 6 7 9 8 7 7 8 9 8 4 6 8 6 7 7 7 13 17 17
2 2 2 2 3 4 6 7 6 4 4 4 5 5 5 5 5 5 7 9 8 9 9 7 7 8 9 8 8 9 8 9 9 8 7 9 6 8 7 9 16 17 17
2 2 3 3 3 4 6 6 6 4 4 4 5 5 5 6 5 7 6 6 6 6 7 6 5 7 7 7 7 7 9 9 9 7 6 8 7 7 8 7 13 15 16
2 2 3 3 3 4 6 6 6 3 4 5 5 5 5 5 8 10 7 7 7 6 8 9 10 9 11 12 9 6 6 6 7 7 4 5 7 8 7 6 8 13 15
3 3 3 3 4 4 6 6 7 3 4 4 4 4 5 6 9 10 6 6 7 7 7 7 8 9 8 8 10 6 5 5 6 7 5 5 6 6 7 5 5 6 8
Wind_Direction
23 12 360 357 356 354 355 351 348 340 336 332 337 343 341 327 311 296 313 330 319 312 310 310 312 315 314 313 312 311 307 302 303 307 303 300 300 298 292 288 286 286 285
24 22 8 357 349 342 342 345 344 334 325 328 327 331 321 314 317 320 319 327 335 331 322 319 319 319 319 316 314 310 311 308 305 303 303 300 296 296 295 290 285 282 282
19 15 11 356 338 328 336 349 349 350 341 338 332 328 329 331 333 341 342 346 346 347 335 329 328 328 324 320 317 313 311 312 310 308 303 302 298 296 291 292 289 281 280
15 11 4 348 333 335 342 354 355 352 348 339 332 332 340 340 340 346 359 3 356 354 351 353 344 335 329 325 323 321 319 317 314 313 312 307 301 296 293 290 291 288 282
3 2 352 337 334 340 353 0 1 352 344 336 323 331 336 327 336 2 15 18 11 9 4 1 355 346 341 334 331 328 325 322 320 317 311 308 306 301 296 292 290 289 287
4 2 355 351 349 1 4 1 357 359 346 328 325 335 320 320 357 12 19 15 14 13 11 7 358 350 349 342 335 330 324 321 321 318 314 310 306 304 301 296 292 289 288
11 13 3 357 4 12 358 352 348 4 2 350 351 334 326 338 25 12 16 15 8 3 5 3 359 357 346 346 341 339 335 329 324 321 318 314 309 304 300 296 296 292 289
9 15 10 2 356 359 8 2 8 12 7 12 0 333 325 324 350 335 351 2 352 355 353 354 352 351 346 340 341 339 336 334 332 327 321 315 311 307 304 301 296 295 292
7 9 10 0 353 3 3 357 5 27 0 360 15 15 345 293 316 308 339 343 344 339 332 338 344 341 342 339 328 333 335 331 328 327 325 321 314 312 310 304 303 299 296
2 359 359 1 356 357 4 356 4 346 42 346 336 352 330 287 288 301 305 322 327 319 317 328 322 320 327 324 324 330 332 330 326 324 322 321 319 314 312 309 305 303 299
356 357 356 360 353 352 357 358 357 358 350 314 309 308 308 313 286 271 290 309 311 296 297 301 300 304 316 316 314 323 329 325 325 322 319 318 316 314 311 308 306 304 302
349 357 356 353 347 350 346 337 348 343 329 315 292 302 295 286 284 278 281 296 298 296 295 292 294 303 308 311 316 325 325 322 322 322 319 316 315 313 311 307 305 303 303
339 339 343 344 344 342 340 338 341 330 317 306 287 275 272 270 282 284 284 293 294 293 288 284 284 301 313 311 309 321 320 321 319 318 319 316 313 311 309 307 305 304 301
323 324 333 336 339 341 339 335 333 322 323 308 308 295 284 290 290 285 284 290 297 292 280 278 282 290 310 307 310 322 313 317 316 316 315 314 312 310 310 307 305 304 303
336 334 331 333 340 341 334 329 326 327 326 321 314 307 298 293 292 293 290 284 280 288 289 282 297 301 306 303 309 309 306 309 313 312 312 312 312 310 309 309 306 303 302
342 342 348 347 346 341 336 332 329 329 328 324 322 316 307 300 296 296 291 287 276 274 281 288 293 299 305 309 312 308 302 311 309 309 309 311 311 311 309 308 307 304 302
345 348 351 352 352 348 344 338 334 326 323 326 326 322 316 311 306 302 298 291 284 280 282 292 293 298 301 302 304 299 297 297 301 305 308 309 310 311 310 308 307 308 307
348 346 351 352 345 344 342 339 339 333 331 332 329 329 325 321 315 309 302 295 289 283 282 292 299 302 302 301 301 301 306 305 300 303 307 308 307 307 308 307 309 308 308
355 350 349 348 342 339 334 329 328 330 329 323 322 322 318 314 309 306 302 298 295 296 290 290 297 303 302 306 308 305 304 300 303 304 308 309 308 309 310 310 310 309 307
357 349 346 343 338 331 328 326 328 327 319 318 317 311 310 307 303 304 303 301 301 301 300 296 298 303 305 307 309 311 311 308 307 308 309 310 309 311 310 309 309 309 308
350 345 342 339 336 329 326 325 319 315 317 319 315 310 309 306 308 309 306 303 302 299 299 298 299 304 307 313 314 312 307 309 304 302 306 306 306 304 307 307 307 307 309
346 348 336 325 326 322 322 321 320 317 314 313 313 314 309 303 309 313 312 314 314 306 303 300 300 301 304 308 308 306 307 308 304 309 307 300 302 301 304 302 308 311 310
336 335 323 319 319 316 319 320 325 323 315 310 308 308 307 309 305 306 315 319 318 317 309 297 297 298 301 305 307 307 306 302 297 305 307 293 300 299 305 308 313 314 314
307 307 310 315 317 314 316 320 328 325 310 304 301 299 300 306 312 312 311 314 311 313 312 308 295 297 301 305 306 303 299 298 292 295 305 291 300 302 304 304 312 318 321
304 307 312 308 302 303 311 320 326 314 305 304 301 301 301 302 310 313 315 313 313 316 324 323 320 318 319 320 318 314 310 306 299 299 311 295 300 306 299 298 311 321 324
289 296 298 295 289 292 305 315 322 310 306 309 308 305 308 312 313 315 315 313 310 314 323 328 327 324 322 320 323 317 306 302 299 295 302 303 300 316 306 294 307 319 323